AirNav   Air Wisconsin Up To $57,000 Bonus
 
 502 users online  

37WI Docken Field Airport
Mount Horeb, Wisconsin, USA

GOING TO MOUNT HOREB?


FAA INFORMATION EFFECTIVE 26 JANUARY 2023

Location

FAA Identifier: 37WI
Lat/Long: 42-59-27.9900N 089-45-12.4420W
42-59.466500N 089-45.207367W
42.9911083,-89.7534561
(estimated)
Elevation: 1230 ft. / 375 m (estimated)
Variation: 00E (1985)
From city: 2 miles SW of MOUNT HOREB, WI
Time zone: UTC -6 (UTC -5 during Daylight Saving Time)
Zip code: 53572

Airport Operations

Airport use: Private use. Permission required prior to landing
Activation date: 11/1978
Control tower: no
ARTCC: CHICAGO CENTER
FSS: GREEN BAY FLIGHT SERVICE STATION
Attendance: UNATNDD
Segmented circle: no

Airport Communications

WX AWOS-3 at C29 (12 nm NE): 118.675 (608-833-1686)

Nearby radio navigation aids

VOR radial/distance  VOR name  Freq  Var
MSNr240/20.3MADISON VORTAC108.6003E
DLLr176/33.6DELLS VORTAC117.0003E
JVLr309/38.6JANESVILLE VOR/DME114.3003E

Airport Services

Runway Information

Runway 15/33

Dimensions: 1800 x 75 ft. / 549 x 23 m
Surface: turf
RUNWAY 15  RUNWAY 33
Traffic pattern: leftleft

Airport Ownership and Management from official FAA records

Ownership: Privately-owned
Owner: ORVILLE DOCKEN
2513 SAND ROCK RD RT 2
MOUNT HOREB, WI 53572
Phone 608-437-3120
Manager: ORVILLE DOCKEN
2513 SAND ROCK RD RT 2
MOUNT HOREB, WI 53572
Phone 608-437-3120

Airport Operational Statistics

Aircraft based on the field: 1
Single engine airplanes: 1
    

Additional Remarks

FOR CD CTC CHICAGO ARTCC AT 630-906-8921.

Instrument Procedures

There are no published instrument procedures at 37WI.

Some nearby airports with instrument procedures:

C29 - Middleton Municipal Airport - Morey Field (12 nm NE)
91C - Sauk/Prairie Airport (18 nm N)
KMSN - Dane County Regional Airport-Truax Field (20 nm NE)
KMRJ - Iowa County Airport (22 nm W)
KLNR - Tri-County Regional Airport (23 nm NW)
 
Loc | Ops | Rwys | IFR | FBO | Links
Com | Nav | Svcs | Stats | Notes
Area around 37WI (Docken Field Airport)
 
Road maps at: MapQuest Bing Google
 
Aerial photo
No photo
 
Sectional chart

 
Airport distance calculator
Flying to Docken Field Airport? Find the distance to fly.

From to 37WI

Sunrise and sunset
Times for 09-Feb-2023
 Local
(UTC-6)
 Zulu
(UTC)
Morning civil twilight06:3612:36
Sunrise07:0613:06
Sunset17:2123:21
Evening civil twilight17:5023:50

Current date and time
Zulu (UTC)  09-Feb-2023 08:38:48
Local (UTC-6)  09-Feb-2023 02:38:48
 
METAR
KC29 
12nm NE 
090815Z AUTO 05005KT 10SM OVC085 02/M01 A2988 RMK AO1 T00161012
KMSN 
20nm NE 
090753Z AUTO 08005KT 10SM OVC090 01/M03 A2989 RMK AO2 SLP130 T00111028
KLNR 
23nm NW 
090756Z AUTO 07004KT 10SM CLR M01/M02 A2989 RMK AO2 SLP124 T10061017
TAF
KMSN 
20nm NE 
090540Z 0906/1006 00000KT P6SM OVC150 FM091100 04011KT 6SM -RASN BR OVC060 FM091500 03017G28KT 3/4SM -SN BR OVC009 FM092100 33016G28KT 1 1/2SM -SN BR OVC011 FM092300 31013G24KT P6SM VCSH OVC012
NOTAMs
Click for the latest NOTAMs
NOTAMs are issued by the DoD/FAA and will open in a separate window not controlled by AirNav.

 

 
 

Would you like to see your business listed on this page?

 If your business provides an interesting product or service to pilots, flight crews, aircraft, or users of the Docken Field Airport, you should consider listing it here.  To start the listing process, click on the button below
 
Add a business
 

Other Pages about Docken Field Airport

Update a link
 
Copyright © AirNav, LLC. All rights reserved. Privacy Policy  Contact